World > North America > United States > Georgia

Uvalda, Georgia Regional Weather

Lat: 32.04N, Lon: 82.51W
Wx Zone: GAZ112
Feedback

Uvalda, GA Regional Weather

Expires:202003301100;;298401
ASUS42 KFFC 301010
RWRGA 
WEATHER ROUNDUP FOR GEORGIA
NATIONAL WEATHER SERVICE PEACHTREE CITY GA
600 AM EDT MON MAR 30 2020

NOTE: "FAIR" INDICATES FEW OR NO CLOUDS BELOW 12,000 FEET WITH NO
SIGNIFICANT WEATHER AND/OR OBSTRUCTIONS TO VISIBILITY. 

* = USE WITH CAUTION. THE STATIONS MARKED WITH AN ASTERISK MAY NOT
REPORT WEATHER SUCH AS PRECIPITATION, FOG, OR THUNDER AND ARE NOT 
QUALITY CONTROLLED BY NWS.

THE REMARK "TC" DENOTES TEMPERATURE READING IN DEGREES CELSIUS.


GAZ099>101-110>166-301100-
SOUTH GEORGIA
  
CITY           SKY/WX    TMP DP  RH WIND       PRES   REMARKS
SAVANNAH       FAIR      69  65  86 W3        30.08S                  
VALDOSTA       FAIR      65  63  93 CALM      30.12R FOG              
ALMA           FAIR      64  63  96 CALM      30.10R FOG              
ST SIMONS      FAIR      69  65  86 W5        30.09R                  
FT STEWART     FAIR      64  64 100 CALM      30.07R                  
ALBANY         FAIR      65  54  67 N3        30.14R                  
HUNTER AFB     FAIR      67  64  90 W3        30.06R                  
MOODY AFB      FOG       64  64 100 CALM      30.11R VSB 7/8          
BRUNSWICK      FAIR      65  64  97 SW6       30.09S                  

  
CITY           SKY/WX    TMP DP  RH WIND       PRES   REMARKS
BAINBRIDGE*    FAIR      63  58  84 CALM      30.13R                  
MOULTRIE*      FAIR      63  63 100 CALM      30.13R                  
VIDALIA*       FAIR      68  50  52 NW3       30.11R                  
WAYCROSS*      FAIR      65  61  85 CALM      30.11R                  
DOUGLAS*       FAIR      67  63  87 CALM      30.13R                  
$$
  

SKY/WX - Weather  TMP - Temperature  DP - Dew Point  RH - Relative Humidity
WIND - Wind Direction/Speed PRES - Barometric Pressure VSB - Visibility
WCI - Wind Chill Index E13G22 Wind - East Wind 13 mph/Gusts of 22 mph
Uvalda Weather Map
UTC Time: 3/30/2020, 10:26
Your Time: